Regional Weather Roundup
Issued by NWS

Home | Current Version | Previous Version | Graphics & Text | Print | Product List | Glossary On
Versions: 1 2 3 4 5 6 7 8 9 10 11 12 13 14 15 16 17 18 19 20 21 22 23 24 25 26 27 28 29 30 31 32 33 34 35 36 37 38 39 40 41 42 43 44 45 46 47 48 49 50
455
ASUS43 KLMK 171410
RWRKY
KENTUCKY REGIONAL WEATHER ROUNDUP
NATIONAL WEATHER SERVICE LOUISVILLE KY
900 AM EST TUE JAN 17 2017

NOTE "FAIR" INDICATES FEW OR NO CLOUDS BELOW 12,000 FEET
WITH NO SIGNIFICANT WEATHER AND/OR OBSTRUCTIONS TO VISIBILITY.

KYZ001>023-026-027-061>063-070>075-171500-
WESTERN AND SOUTH CENTRAL KENTUCKY

CITY           SKY/WX    TMP DP  RH WIND       PRES   REMARKS
PADUCAH        CLOUDY    48  41  76 W12       30.01R
HENDERSON      MOCLDY    52  46  82 NW8       29.97S
OWENSBORO      MOCLDY    58  53  84 W10       29.97R
HOPKINSVILLE   MOCLDY    61  59  94 W13       30.00R
BOWLING GREEN  LGT RAIN  64  59  83 SW13      29.99R
GLASGOW        RAIN      62  62 100 SW15G21   30.00R
$$

KYZ024-025-028>034-038-045-046-053-171500-
NORTH CENTRAL KENTUCKY

CITY           SKY/WX    TMP DP  RH WIND       PRES   REMARKS
LOUISVILLE/SDF MOCLDY    62  57  83 SW13      29.92S
LOUISVILLE/LOU CLOUDY    62  57  83 SW8       29.93R
FORT KNOX      CLOUDY    60  60 100 SW9       29.93R
$$

KYZ035>037-039>044-047>052-055>060-089>105-171500-
NORTHEAST KENTUCKY

CITY           SKY/WX    TMP DP  RH WIND       PRES   REMARKS
LEXINGTON      RAIN      59  57  93 W7        29.96R FOG
COVINGTON      MOCLDY    59  56  89 SW10      29.90S
FRANKFORT      CLOUDY    61  56  83 SW12      29.93S
$$

KYZ054-064>069-076>088-106>120-171500-
SOUTHEAST KENTUCKY

CITY           SKY/WX    TMP DP  RH WIND       PRES   REMARKS
JACKSON        CLOUDY    57  54  89 SW8       30.02S
LONDON         CLOUDY    60  54  80 SW10G22   30.04S
SOMERSET       DRIZZLE   55  55 100 S8        30.04S
MIDDLESBORO    DRIZZLE   58  55  90 SW7G17    30.10S
MONTICELLO     LGT RAIN  61  58  90 S8G24     30.04F
$$





USA.gov is the U.S. government's official web portal to all federal, state and local government web resources and services.